Location: Ciserano
(45.5833°N, 9.6000°E)
Time: 09:18:09
(UTC+00:00)

NOSS 3-4 (C) - Pass Details

Date: 29 November 2020
Orbit: 878 x 1334 km, 63.4° (Epoch: 22 January)

Event Time Altitude Azimuth Distance (km) Brightness Sun altitude
Exits shadow 04:00:59 71° 232° (SW) 958 3.2 -27.1°
Maximum altitude 04:01:40 86° 308° (NW) 922 3.2 -27.0°
Drops below altitude 10° 04:07:58 10° 38° (NE) 2,723 6.2 -25.9°
Sets 04:10:39 0° 39° (NE) 3,735 7.0 -25.4°
